QPF
0.00 0.00 0.00 0.00 0.00 0.00 0.01 0.00 0.01 0.02 0.03 0.03 0.04 0.03 0.03 0.03 0.02 0.02 0.03 0.04 0.05 0.05 0.06 0.06 0.07 0.07 0.09 0.08 0.07 0.07 0.07 0.07 0.06 0.08 0.08 0.05 0.02 0.03 0.03 0.03 0.02 0.02 0.02
0.00 0.00 0.00 0.00 0.00 0.00 0.01 0.01 0.01 0.03 0.03 0.04 0.04 0.02 0.02 0.02 0.02 0.02 0.03 0.04 0.05 0.05 0.04 0.06 0.07 0.07 0.10 0.10 0.09 0.10 0.09 0.07 0.07 0.13 0.13 0.11 0.08 0.05 0.02 0.03 0.03 0.03 0.02
0.00 0.00 0.00 0.00 0.00 0.00 0.00 0.00 0.01 0.03 0.03 0.04 0.03 0.02 0.02 0.03 0.03 0.04 0.05 0.04 0.04 0.03 0.04 0.06 0.08 0.08 0.07 0.09 0.10 0.10 0.11 0.10 0.10 0.12 0.13 0.11 0.11 0.08 0.04 0.02 0.02 0.03 0.05
0.00 0.00 0.00 0.01 0.00 0.00 0.00 0.01 0.03 0.03 0.02 0.03 0.02 0.03 0.03 0.04 0.05 0.05 0.05 0.05 0.04 0.04 0.03 0.07 0.08 0.08 0.07 0.08 0.08 0.08 0.09 0.11 0.13 0.12 0.09 0.07 0.07 0.08 0.07 0.04 0.02 0.02 0.03
0.00 0.00 0.00 0.01 0.01 0.01 0.01 0.01 0.02 0.02 0.02 0.02 0.02 0.03 0.03 0.03 0.03 0.03 0.04 0.04 0.03 0.03 0.03 0.05 0.07 0.08 0.06 0.06 0.07 0.07 0.08 0.08 0.10 0.11 0.10 0.07 0.06 0.06 0.08 0.08 0.06 0.04 0.03
0.00 0.00 0.01 0.01 0.01 0.01 0.01 0.00 0.00 0.01 0.01 0.01 0.01 0.01 0.03 0.04 0.03 0.04 0.04 0.03 0.03 0.03 0.03 0.04 0.06 0.06 0.05 0.05 0.06 0.07 0.08 0.08 0.08 0.09 0.08 0.08 0.08 0.08 0.09 0.09 0.08 0.07 0.04
0.00 0.00 0.01 0.00 0.00 0.00 0.00 0.00 0.00 0.00 0.00 0.01 0.01 0.02 0.03 0.03 0.03 0.03 0.04 0.04 0.03 0.03 0.04 0.04 0.06 0.06 0.06 0.07 0.06 0.07 0.08 0.07 0.07 0.07 0.07 0.07 0.07 0.08 0.09 0.07 0.06 0.06 0.05
0.00 0.00 0.01 0.00 0.01 0.01 0.01 0.00 0.01 0.01 0.01 0.01 0.02 0.03 0.03 0.02 0.02 0.02 0.03 0.03 0.02 0.02 0.04 0.05 0.05 0.06 0.06 0.05 0.07 0.07 0.07 0.07 0.06 0.06 0.07 0.06 0.05 0.07 0.09 0.09 0.08 0.06 0.05
0.00 0.00 0.01 0.01 0.01 0.01 0.00 0.00 0.01 0.01 0.01 0.01 0.02 0.02 0.02 0.01 0.01 0.02 0.02 0.02 0.02 0.02 0.03 0.04 0.06 0.06 0.05 0.05 0.06 0.05 0.05 0.07 0.07 0.06 0.06 0.06 0.06 0.07 0.08 0.08 0.08 0.08 0.08
0.00 0.00 0.01 0.01 0.01 0.00 0.00 0.01 0.01 0.01 0.01 0.01 0.02 0.02 0.02 0.02 0.02 0.02 0.01 0.02 0.02 0.02 0.03 0.04 0.04 0.04 0.05 0.05 0.05 0.04 0.04 0.06 0.06 0.05 0.05 0.06 0.07 0.07 0.07 0.06 0.07 0.08 0.09
0.00 0.00 0.01 0.01 0.01 0.01 0.01 0.01 0.01 0.01 0.01 0.02 0.02 0.02 0.02 0.02 0.01 0.02 0.02 0.02 0.02 0.02 0.02 0.03 0.04 0.04 0.04 0.05 0.05 0.03 0.04 0.04 0.05 0.05 0.05 0.06 0.06 0.06 0.05 0.05 0.05 0.05 0.06
0.01 0.01 0.01 0.00 0.01 0.01 0.01 0.00 0.00 0.01 0.01 0.02 0.02 0.03 0.01 0.01 0.01 0.02 0.02 0.02 0.02 0.02 0.02 0.02 0.03 0.03 0.04 0.04 0.03 0.03 0.03 0.04 0.05 0.05 0.05 0.06 0.07 0.07 0.06 0.06 0.05 0.05 0.04
0.01 0.01 0.01 0.01 0.01 0.01 0.01 0.01 0.00 0.01 0.02 0.02 0.03 0.02 0.01 0.01 0.01 0.01 0.01 0.02 0.02 0.03 0.03 0.02 0.02 0.03 0.04 0.03 0.03 0.03 0.04 0.04 0.05 0.05 0.05 0.06 0.08 0.08 0.08 0.07 0.06 0.06 0.04
0.01 0.01 0.00 0.00 0.00 0.01 0.01 0.01 0.01 0.03 0.03 0.02 0.02 0.01 0.01 0.01 0.01 0.01 0.02 0.03 0.03 0.04 0.04 0.03 0.02 0.03 0.04 0.03 0.02 0.03 0.04 0.05 0.05 0.04 0.04 0.04 0.05 0.07 0.09 0.07 0.06 0.06 0.05
0.01 0.01 0.00 0.00 0.00 0.01 0.01 0.01 0.02 0.04 0.05 0.03 0.02 0.01 0.01 0.01 0.01 0.02 0.02 0.03 0.03 0.03 0.04 0.04 0.04 0.04 0.03 0.03 0.04 0.05 0.06 0.07 0.07 0.05 0.05 0.05 0.05 0.05 0.05 0.05 0.06 0.06 0.05
0.00 0.00 0.00 0.00 0.00 0.01 0.01 0.01 0.02 0.03 0.05 0.03 0.02 0.01 0.01 0.01 0.01 0.02 0.02 0.02 0.02 0.02 0.03 0.03 0.04 0.04 0.03 0.04 0.04 0.04 0.05 0.06 0.06 0.06 0.06 0.06 0.05 0.05 0.06 0.06 0.06 0.06 0.05
0.00 0.00 0.00 0.00 0.00 0.00 0.00 0.01 0.01 0.01 0.01 0.01 0.01 0.02 0.02 0.02 0.02 0.02 0.01 0.02 0.02 0.02 0.02 0.03 0.03 0.03 0.04 0.03 0.03 0.04 0.04 0.04 0.04 0.05 0.05 0.06 0.07 0.08 0.05 0.05 0.04 0.04 0.04
0.00 0.00 0.00 0.00 0.00 0.00 0.01 0.02 0.03 0.03 0.02 0.01 0.01 0.02 0.04 0.05 0.03 0.03 0.02 0.02 0.02 0.02 0.02 0.03 0.03 0.04 0.05 0.04 0.03 0.04 0.05 0.04 0.04 0.05 0.06 0.06 0.06 0.05 0.04 0.04 0.04 0.03 0.03
0.00 0.00 0.00 0.00 0.00 0.00 0.01 0.02 0.03 0.03 0.02 0.02 0.03 0.03 0.04 0.05 0.05 0.05 0.05 0.03 0.03 0.03 0.03 0.03 0.04 0.04 0.04 0.04 0.04 0.03 0.03 0.03 0.04 0.04 0.04 0.04 0.03 0.03 0.03 0.03 0.03 0.03 0.02
0.01 0.01 0.00 0.00 0.00 0.00 0.01 0.01 0.02 0.03 0.03 0.03 0.03 0.04 0.04 0.06 0.06 0.05 0.05 0.05 0.04 0.03 0.03 0.02 0.03 0.03 0.02 0.02 0.03 0.03 0.02 0.03 0.03 0.02 0.02 0.02 0.02 0.02 0.02 0.02 0.02 0.01 0.01
0.01 0.01 0.00 0.00 0.00 0.00 0.01 0.01 0.02 0.03 0.03 0.03 0.03 0.03 0.03 0.05 0.08 0.08 0.08 0.06 0.05 0.03 0.02 0.01 0.01 0.01 0.01 0.01 0.01 0.01 0.01 0.01 0.02 0.02 0.02 0.02 0.02 0.01 0.01 0.02 0.01 0.01 0.01
0.01 0.00 0.00 0.00 0.00 0.00 0.01 0.01 0.01 0.02 0.03 0.03 0.04 0.04 0.03 0.04 0.07 0.08 0.08 0.07 0.05 0.03 0.02 0.02 0.01 0.01 0.01 0.01 0.01 0.01 0.01 0.01 0.01 0.01 0.02 0.03 0.02 0.01 0.01 0.01 0.02 0.02 0.02
0.02 0.01 0.01 0.01 0.01 0.02 0.01 0.01 0.01 0.02 0.02 0.03 0.04 0.04 0.04 0.05 0.05 0.06 0.05 0.06 0.06 0.04 0.03 0.02 0.02 0.02 0.01 0.01 0.01 0.01 0.02 0.02 0.01 0.02 0.03 0.03 0.02 0.02 0.01 0.01 0.02 0.02 0.01
0.03 0.02 0.01 0.01 0.01 0.03 0.01 0.01 0.03 0.04 0.04 0.04 0.04 0.03 0.04 0.05 0.06 0.06 0.05 0.05 0.06 0.05 0.04 0.03 0.02 0.01 0.01 0.01 0.01 0.01 0.01 0.01 0.01 0.02 0.03 0.03 0.03 0.03 0.03 0.02 0.02 0.02 0.01
0.04 0.03 0.02 0.01 0.01 0.02 0.02 0.03 0.03 0.04 0.04 0.03 0.03 0.03 0.04 0.04 0.05 0.06 0.06 0.05 0.05 0.06 0.05 0.04 0.03 0.01 0.01 0.01 0.01 0.00 0.00 0.00 0.00 0.01 0.01 0.01 0.01 0.02 0.03 0.04 0.05 0.04 0.02
0.03 0.02 0.02 0.01 0.01 0.02 0.02 0.02 0.03 0.02 0.02 0.03 0.03 0.03 0.03 0.03 0.03 0.04 0.05 0.06 0.05 0.05 0.04 0.03 0.02 0.01 0.01 0.01 0.00 0.00 0.00 0.00 0.00 0.00 0.01 0.00 0.00 0.01 0.02 0.03 0.04 0.03 0.03
MSLP
1010.60 1010.69 1010.84 1011.03 1011.25 1011.48 1011.70 1011.91 1012.09 1012.23 1012.34 1012.43 1012.49 1012.54 1012.59 1012.64 1012.69 1012.74 1012.78 1012.80 1012.79 1012.75 1012.70 1012.64 1012.61 1012.62 1012.67 1012.79 1012.94 1013.13 1013.32 1013.48 1013.60 1013.66 1013.67 1013.64 1013.59 1013.53 1013.50 1013.50 1013.55 1013.64 1013.75
1010.38 1010.54 1010.75 1010.98 1011.22 1011.45 1011.66 1011.85 1012.03 1012.19 1012.34 1012.49 1012.63 1012.76 1012.87 1012.97 1013.05 1013.10 1013.12 1013.10 1013.05 1012.98 1012.90 1012.83 1012.78 1012.76 1012.80 1012.87 1012.98 1013.11 1013.24 1013.36 1013.46 1013.52 1013.55 1013.56 1013.57 1013.58 1013.61 1013.66 1013.73 1013.83 1013.95
1010.06 1010.30 1010.59 1010.88 1011.15 1011.39 1011.60 1011.79 1011.98 1012.17 1012.38 1012.59 1012.81 1013.02 1013.21 1013.36 1013.46 1013.51 1013.51 1013.47 1013.39 1013.30 1013.20 1013.12 1013.06 1013.03 1013.04 1013.06 1013.11 1013.17 1013.24 1013.30 1013.35 1013.40 1013.46 1013.52 1013.59 1013.68 1013.80 1013.92 1014.05 1014.19 1014.32
1009.60 1009.93 1010.30 1010.66 1010.98 1011.26 1011.50 1011.72 1011.94 1012.17 1012.44 1012.74 1013.04 1013.33 1013.59 1013.79 1013.92 1013.98 1013.97 1013.92 1013.83 1013.72 1013.63 1013.55 1013.49 1013.45 1013.43 1013.41 1013.40 1013.39 1013.37 1013.37 1013.37 1013.40 1013.46 1013.56 1013.70 1013.87 1014.06 1014.27 1014.47 1014.66 1014.83
1009.01 1009.43 1009.88 1010.32 1010.71 1011.04 1011.33 1011.59 1011.86 1012.16 1012.51 1012.88 1013.27 1013.65 1013.98 1014.23 1014.40 1014.48 1014.48 1014.42 1014.33 1014.24 1014.15 1014.08 1014.04 1014.00 1013.96 1013.92 1013.85 1013.77 1013.68 1013.60 1013.55 1013.54 1013.59 1013.71 1013.89 1014.12 1014.38 1014.66 1014.93 1015.17 1015.39
1008.34 1008.83 1009.36 1009.88 1010.34 1010.74 1011.08 1011.41 1011.74 1012.11 1012.53 1012.99 1013.47 1013.92 1014.32 1014.64 1014.84 1014.95 1014.97 1014.93 1014.85 1014.78 1014.71 1014.67 1014.65 1014.62 1014.59 1014.52 1014.42 1014.29 1014.14 1014.00 1013.89 1013.83 1013.85 1013.96 1014.14 1014.40 1014.70 1015.03 1015.35 1015.64 1015.89
1007.65 1008.20 1008.80 1009.38 1009.92 1010.38 1010.79 1011.17 1011.57 1012.01 1012.51 1013.04 1013.60 1014.12 1014.59 1014.96 1015.21 1015.35 1015.40 1015.38 1015.33 1015.28 1015.24 1015.23 1015.24 1015.24 1015.22 1015.16 1015.04 1014.88 1014.69 1014.50 1014.33 1014.23 1014.20 1014.27 1014.44 1014.68 1014.98 1015.32 1015.66 1015.98 1016.27
1007.04 1007.62 1008.27 1008.91 1009.49 1010.01 1010.47 1010.92 1011.37 1011.88 1012.43 1013.03 1013.64 1014.23 1014.75 1015.17 1015.46 1015.64 1015.72 1015.73 1015.71 1015.68 1015.68 1015.70 1015.74 1015.77 1015.77 1015.73 1015.63 1015.46 1015.26 1015.04 1014.83 1014.68 1014.61 1014.63 1014.74 1014.94 1015.21 1015.53 1015.86 1016.18 1016.49
1006.58 1007.18 1007.85 1008.51 1009.13 1009.69 1010.20 1010.68 1011.19 1011.73 1012.33 1012.97 1013.63 1014.26 1014.82 1015.28 1015.61 1015.82 1015.93 1015.97 1015.98 1015.98 1016.01 1016.05 1016.12 1016.18 1016.21 1016.20 1016.12 1015.97 1015.78 1015.56 1015.34 1015.16 1015.04 1015.01 1015.06 1015.20 1015.41 1015.67 1015.96 1016.26 1016.56
1006.30 1006.90 1007.57 1008.25 1008.88 1009.46 1010.00 1010.51 1011.04 1011.61 1012.23 1012.90 1013.57 1014.23 1014.81 1015.30 1015.67 1015.92 1016.06 1016.14 1016.17 1016.20 1016.24 1016.31 1016.39 1016.47 1016.53 1016.54 1016.50 1016.39 1016.23 1016.03 1015.82 1015.64 1015.50 1015.42 1015.41 1015.48 1015.62 1015.80 1016.03 1016.29 1016.56
1006.18 1006.77 1007.44 1008.11 1008.75 1009.34 1009.89 1010.42 1010.96 1011.54 1012.16 1012.83 1013.51 1014.17 1014.78 1015.28 1015.68 1015.97 1016.15 1016.26 1016.33 1016.38 1016.44 1016.52 1016.61 1016.70 1016.77 1016.81 1016.80 1016.74 1016.62 1016.47 1016.30 1016.14 1016.00 1015.89 1015.84 1015.85 1015.91 1016.02 1016.18 1016.37 1016.60
1006.15 1006.73 1007.39 1008.05 1008.69 1009.28 1009.84 1010.38 1010.93 1011.51 1012.13 1012.79 1013.46 1014.12 1014.73 1015.26 1015.69 1016.01 1016.24 1016.40 1016.51 1016.59 1016.67 1016.75 1016.84 1016.93 1017.01 1017.07 1017.09 1017.07 1017.00 1016.91 1016.79 1016.67 1016.55 1016.45 1016.38 1016.34 1016.34 1016.38 1016.47 1016.59 1016.75
1006.10 1006.68 1007.33 1007.99 1008.63 1009.23 1009.80 1010.36 1010.92 1011.50 1012.11 1012.76 1013.41 1014.06 1014.67 1015.22 1015.69 1016.06 1016.35 1016.57 1016.73 1016.86 1016.96 1017.06 1017.15 1017.23 1017.31 1017.37 1017.41 1017.42 1017.40 1017.37 1017.31 1017.24 1017.16 1017.09 1017.02 1016.96 1016.92 1016.91 1016.93 1016.99 1017.08
1005.94 1006.52 1007.16 1007.83 1008.48 1009.11 1009.71 1010.29 1010.87 1011.46 1012.07 1012.70 1013.34 1013.98 1014.59 1015.16 1015.67 1016.10 1016.46 1016.75 1016.98 1017.17 1017.31 1017.43 1017.53 1017.61 1017.68 1017.74 1017.78 1017.82 1017.84 1017.86 1017.86 1017.85 1017.82 1017.78 1017.73 1017.68 1017.62 1017.57 1017.54 1017.54 1017.57
1005.59 1006.17 1006.82 1007.50 1008.18 1008.85 1009.50 1010.13 1010.74 1011.35 1011.97 1012.59 1013.22 1013.85 1014.46 1015.04 1015.59 1016.08 1016.52 1016.90 1017.21 1017.47 1017.68 1017.84 1017.95 1018.04 1018.11 1018.16 1018.21 1018.25 1018.30 1018.35 1018.40 1018.44 1018.47 1018.47 1018.45 1018.41 1018.35 1018.29 1018.22 1018.18 1018.16
1005.05 1005.63 1006.28 1006.99 1007.71 1008.44 1009.15 1009.84 1010.51 1011.15 1011.78 1012.40 1013.02 1013.64 1014.25 1014.84 1015.42 1015.97 1016.49 1016.95 1017.36 1017.70 1017.98 1018.19 1018.35 1018.45 1018.52 1018.57 1018.62 1018.67 1018.73 1018.80 1018.88 1018.97 1019.04 1019.08 1019.09 1019.07 1019.02 1018.95 1018.87 1018.79 1018.73
1004.33 1004.91 1005.57 1006.31 1007.09 1007.89 1008.67 1009.44 1010.16 1010.85 1011.51 1012.14 1012.75 1013.35 1013.95 1014.55 1015.15 1015.75 1016.32 1016.86 1017.36 1017.79 1018.15 1018.42 1018.63 1018.76 1018.85 1018.91 1018.96 1019.01 1019.08 1019.16 1019.26 1019.36 1019.46 1019.54 1019.57 1019.57 1019.54 1019.46 1019.37 1019.28 1019.18
1003.54 1004.10 1004.77 1005.54 1006.38 1007.24 1008.11 1008.95 1009.75 1010.49 1011.18 1011.82 1012.42 1013.01 1013.59 1014.18 1014.79 1015.40 1016.02 1016.62 1017.18 1017.68 1018.12 1018.47 1018.73 1018.91 1019.03 1019.11 1019.16 1019.22 1019.29 1019.38 1019.48 1019.60 1019.71 1019.80 1019.85 1019.86 1019.83 1019.76 1019.67 1019.56 1019.45
1002.76 1003.30 1003.97 1004.76 1005.64 1006.57 1007.51 1008.43 1009.30 1010.09 1010.82 1011.48 1012.08 1012.65 1013.21 1013.78 1014.37 1014.98 1015.61 1016.24 1016.84 1017.40 1017.90 1018.30 1018.62 1018.86 1019.02 1019.13 1019.21 1019.28 1019.35 1019.44 1019.55 1019.66 1019.77 1019.86 1019.92 1019.94 1019.91 1019.84 1019.74 1019.62 1019.49
1002.09 1002.59 1003.25 1004.05 1004.95 1005.92 1006.92 1007.91 1008.84 1009.70 1010.46 1011.15 1011.76 1012.32 1012.86 1013.40 1013.96 1014.55 1015.16 1015.78 1016.40 1016.99 1017.52 1017.98 1018.35 1018.64 1018.85 1019.00 1019.11 1019.20 1019.29 1019.38 1019.48 1019.59 1019.69 1019.77 1019.82 1019.83 1019.80 1019.72 1019.61 1019.48 1019.35
1001.58 1002.03 1002.65 1003.43 1004.33 1005.33 1006.36 1007.40 1008.38 1009.29 1010.11 1010.83 1011.46 1012.03 1012.56 1013.07 1013.60 1014.15 1014.72 1015.32 1015.93 1016.51 1017.06 1017.55 1017.96 1018.30 1018.56 1018.76 1018.91 1019.03 1019.14 1019.24 1019.34 1019.44 1019.52 1019.59 1019.62 1019.62 1019.57 1019.48 1019.37 1019.23 1019.08
1001.21 1001.60 1002.16 1002.90 1003.78 1004.76 1005.81 1006.87 1007.90 1008.87 1009.73 1010.50 1011.17 1011.76 1012.29 1012.80 1013.29 1013.81 1014.35 1014.91 1015.48 1016.05 1016.60 1017.10 1017.54 1017.92 1018.22 1018.47 1018.66 1018.82 1018.95 1019.06 1019.16 1019.25 1019.32 1019.36 1019.37 1019.35 1019.29 1019.19 1019.06 1018.91 1018.74
1000.95 1001.26 1001.76 1002.42 1003.25 1004.20 1005.23 1006.30 1007.36 1008.36 1009.29 1010.11 1010.84 1011.47 1012.04 1012.55 1013.04 1013.53 1014.04 1014.57 1015.11 1015.65 1016.18 1016.68 1017.14 1017.55 1017.89 1018.18 1018.42 1018.60 1018.76 1018.88 1018.97 1019.05 1019.10 1019.12 1019.11 1019.07 1018.99 1018.88 1018.74 1018.58 1018.41
1000.75 1000.97 1001.37 1001.96 1002.70 1003.59 1004.58 1005.64 1006.71 1007.75 1008.72 1009.61 1010.41 1011.11 1011.72 1012.27 1012.79 1013.28 1013.77 1014.28 1014.79 1015.31 1015.83 1016.33 1016.80 1017.23 1017.61 1017.93 1018.20 1018.41 1018.58 1018.70 1018.79 1018.84 1018.87 1018.87 1018.84 1018.77 1018.68 1018.56 1018.42 1018.27 1018.10
1000.54 1000.68 1000.98 1001.47 1002.12 1002.93 1003.86 1004.88 1005.93 1006.99 1008.01 1008.97 1009.83 1010.61 1011.29 1011.91 1012.46 1012.98 1013.49 1013.99 1014.50 1015.01 1015.53 1016.03 1016.52 1016.96 1017.36 1017.71 1018.00 1018.22 1018.39 1018.51 1018.58 1018.62 1018.62 1018.59 1018.54 1018.46 1018.36 1018.25 1018.12 1017.97 1017.82
1000.30 1000.37 1000.59 1000.97 1001.53 1002.24 1003.09 1004.05 1005.08 1006.13 1007.18 1008.18 1009.11 1009.95 1010.72 1011.40 1012.02 1012.59 1013.13 1013.66 1014.18 1014.71 1015.23 1015.75 1016.24 1016.70 1017.12 1017.48 1017.78 1018.01 1018.17 1018.27 1018.32 1018.33 1018.31 1018.25 1018.18 1018.10 1018.01 1017.91 1017.80 1017.69 1017.56
Thickness
5815 5813 5809 5805 5801 5795 5789 5785 5782 5779 5775 5773 5770 5767 5765 5765 5764 5762 5758 5756 5755 5754 5753 5754 5752 5751 5751 5750 5751 5749 5749 5750 5751 5750 5748 5752 5755 5754 5753 5753 5753 5752 5749
5814 5812 5810 5806 5802 5796 5792 5788 5784 5782 5778 5775 5771 5769 5768 5767 5766 5763 5760 5757 5756 5755 5756 5753 5753 5753 5751 5750 5750 5748 5748 5749 5750 5747 5744 5743 5746 5748 5754 5752 5750 5750 5749
5817 5814 5810 5807 5804 5799 5795 5792 5787 5784 5780 5777 5774 5772 5768 5767 5766 5763 5761 5759 5757 5756 5755 5754 5753 5753 5753 5752 5750 5749 5747 5746 5749 5750 5745 5741 5737 5744 5748 5749 5749 5747 5747
5823 5819 5814 5810 5807 5804 5801 5795 5790 5786 5782 5779 5776 5772 5768 5765 5765 5764 5763 5761 5759 5757 5756 5754 5754 5753 5754 5752 5752 5753 5751 5748 5747 5749 5749 5748 5746 5741 5739 5744 5746 5746 5744
5828 5823 5820 5816 5812 5809 5804 5799 5793 5788 5784 5781 5777 5773 5770 5769 5768 5766 5763 5761 5761 5759 5757 5756 5755 5754 5754 5754 5752 5752 5751 5751 5749 5748 5748 5747 5745 5745 5739 5736 5739 5741 5743
5831 5827 5825 5820 5815 5812 5806 5801 5794 5789 5787 5783 5780 5775 5771 5768 5766 5764 5763 5762 5762 5761 5759 5757 5756 5754 5754 5753 5752 5751 5751 5750 5749 5748 5748 5746 5744 5742 5741 5736 5735 5736 5738
5832 5828 5823 5819 5814 5810 5807 5803 5797 5791 5789 5785 5782 5778 5774 5770 5767 5765 5764 5762 5762 5761 5759 5759 5756 5755 5754 5752 5752 5751 5750 5750 5747 5746 5747 5747 5746 5745 5742 5738 5736 5734 5736
5833 5829 5826 5821 5816 5812 5808 5804 5799 5793 5791 5787 5783 5780 5776 5774 5773 5769 5767 5765 5763 5763 5760 5758 5757 5755 5754 5753 5752 5752 5750 5749 5747 5746 5745 5744 5745 5745 5742 5739 5735 5732 5732
5832 5830 5828 5824 5819 5814 5810 5806 5801 5796 5792 5789 5785 5781 5777 5775 5773 5770 5767 5766 5764 5762 5760 5758 5757 5755 5754 5752 5751 5750 5748 5748 5747 5746 5744 5743 5743 5742 5742 5740 5738 5731 5726
5831 5829 5828 5824 5821 5817 5813 5808 5803 5798 5794 5791 5787 5784 5779 5776 5773 5771 5767 5764 5762 5760 5758 5757 5755 5754 5752 5751 5749 5749 5747 5745 5743 5742 5741 5739 5740 5739 5739 5738 5737 5735 5730
5829 5828 5826 5824 5821 5818 5814 5808 5803 5799 5795 5792 5788 5785 5781 5777 5773 5770 5767 5764 5761 5759 5757 5755 5753 5751 5750 5748 5746 5747 5745 5743 5741 5740 5738 5736 5736 5736 5736 5736 5734 5732 5729
5828 5827 5825 5822 5819 5816 5813 5808 5804 5799 5796 5792 5788 5784 5781 5777 5773 5770 5767 5764 5760 5758 5756 5754 5752 5750 5748 5746 5744 5743 5743 5740 5738 5736 5735 5734 5734 5732 5731 5731 5730 5728 5725
5824 5823 5821 5817 5815 5813 5810 5808 5803 5800 5797 5792 5787 5783 5779 5776 5772 5769 5766 5763 5760 5757 5755 5752 5749 5747 5746 5744 5742 5740 5739 5737 5735 5733 5731 5730 5729 5727 5727 5725 5725 5723 5722
5817 5816 5813 5811 5810 5808 5807 5805 5802 5799 5795 5791 5786 5780 5777 5774 5771 5768 5764 5761 5759 5756 5753 5750 5747 5745 5743 5741 5739 5737 5735 5733 5731 5730 5728 5726 5725 5723 5721 5720 5718 5717 5715
5810 5809 5807 5806 5805 5804 5802 5801 5798 5796 5792 5787 5783 5778 5775 5772 5769 5765 5762 5759 5756 5754 5750 5747 5744 5741 5740 5738 5735 5734 5732 5729 5726 5724 5722 5720 5718 5715 5714 5715 5713 5711 5710
5805 5805 5804 5802 5800 5799 5798 5796 5793 5791 5788 5784 5781 5777 5773 5770 5766 5762 5759 5756 5752 5749 5746 5742 5739 5736 5735 5730 5727 5727 5727 5724 5721 5719 5717 5715 5712 5708 5706 5704 5702 5701 5701
5800 5799 5799 5798 5797 5796 5795 5792 5790 5787 5784 5780 5777 5773 5770 5766 5763 5760 5756 5752 5749 5745 5741 5737 5734 5730 5726 5723 5721 5720 5720 5719 5716 5714 5712 5711 5709 5705 5702 5698 5696 5693 5691
5796 5795 5795 5794 5793 5793 5790 5789 5786 5782 5778 5775 5772 5769 5766 5763 5759 5755 5751 5747 5745 5741 5737 5733 5729 5725 5720 5716 5715 5714 5714 5714 5710 5708 5706 5703 5700 5698 5695 5693 5691 5688 5685
5792 5792 5792 5792 5790 5787 5785 5782 5779 5777 5774 5770 5767 5765 5762 5758 5754 5750 5746 5743 5740 5736 5732 5728 5724 5720 5714 5709 5708 5707 5709 5706 5703 5701 5698 5695 5691 5685 5684 5685 5683 5680 5678
5787 5786 5787 5786 5782 5780 5779 5775 5773 5771 5768 5766 5763 5761 5757 5753 5749 5745 5741 5738 5735 5730 5727 5722 5718 5714 5709 5702 5701 5701 5705 5700 5697 5693 5690 5683 5680 5676 5675 5677 5675 5672 5670
5779 5780 5779 5778 5775 5774 5772 5769 5767 5764 5763 5762 5758 5754 5751 5747 5743 5739 5735 5731 5728 5723 5719 5715 5711 5706 5702 5697 5694 5693 5697 5694 5691 5687 5683 5676 5670 5667 5666 5666 5666 5662 5660
5770 5772 5770 5768 5768 5767 5765 5761 5758 5758 5757 5754 5750 5747 5744 5741 5737 5731 5727 5723 5720 5716 5712 5708 5704 5701 5696 5691 5687 5685 5684 5683 5682 5679 5675 5668 5662 5660 5658 5657 5654 5653 5652
5761 5763 5762 5759 5758 5759 5758 5753 5751 5751 5749 5745 5742 5739 5735 5732 5729 5725 5720 5716 5714 5712 5708 5704 5699 5695 5691 5685 5679 5677 5675 5673 5672 5668 5661 5658 5655 5653 5652 5648 5647 5647 5647
5753 5753 5752 5750 5748 5749 5749 5747 5746 5744 5741 5737 5733 5730 5727 5723 5720 5717 5714 5711 5708 5705 5702 5698 5694 5689 5685 5681 5677 5673 5669 5664 5663 5660 5653 5650 5648 5646 5643 5641 5641 5639 5636
5743 5744 5743 5740 5740 5740 5739 5739 5738 5736 5732 5729 5725 5722 5719 5715 5710 5706 5701 5700 5696 5695 5692 5691 5688 5684 5679 5671 5666 5666 5664 5661 5657 5654 5651 5648 5646 5642 5639 5636 5633 5630 5628
5734 5734 5733 5731 5730 5730 5729 5730 5729 5727 5724 5720 5717 5715 5712 5707 5703 5698 5689 5681 5680 5678 5676 5676 5676 5672 5666 5660 5657 5654 5651 5649 5646 5646 5645 5641 5638 5634 5631 5628 5625 5621 5618